Location: *
(28.3744°N, 81.5492°W)
Time: 02:50:56
(UTC+00:00)

Cosmos 2227 Rocket - Pass Details

Date: 15 June 2025
Orbit: 836 x 845 km, 71.0° (Epoch: 11 July)

Event Time Altitude Azimuth Distance (km) Brightness Sun altitude
Exits shadow 02:35:42 - 212° (SSW) 2,933 4.9 -23.9°
Reaches altitude 10° 02:37:02 10° 215° (SW) 2,440 4.5 -24.1°
Maximum altitude 02:42:29 52° 291° (WNW) 1,027 2.9 -24.9°
Drops below altitude 10° 02:47:58 10° 8° (N) 2,455 5.1 -25.7°
Sets 02:50:29 0° 13° (NNE) 3,394 5.8 -26.1°
